DW7779 Weather Reports


Display with metric or nautical units.
time (UTC)temp
F
wind
direction
speed
MPH
gust
MPH
rain 1hr
in
rain 24hr
in
rain mn
in
humidity
%
barometer
mb
20260906230047 51 1.0 5.0 0.01 0.04 0.04 97 1025.9
20260906224543 50 1.0 4.0 0.01 0.04 0.04 97 1025.7
20260906223055 50 0.0 5.0 0.00 0.03 0.03 97 1025.4
20260906221539 50 1.0 4.0 0.00 0.03 0.03 97 1025.1
20260906220039 49 0.0 5.0 0.00 0.03 0.03 97 1024.8
20260906214544 48 2.0 5.0 0.00 0.03 0.03 97 1024.5
20260906213033 48 0.0 1.0 0.00 0.03 0.03 97 1024.4
20260906211540 47 0.0 2.0 0.00 0.03 0.03 97 1024.0
20260906210045 46 0.0 2.0 0.00 0.03 0.03 97 1023.9
20260906204529 47 0.0 2.0 0.00 0.03 0.03 97 1023.8
20260906203029 47 0.0 2.0 0.00 0.03 0.03 97 1023.6
20260906201537 47 0.0 6.0 0.00 0.03 0.03 97 1023.6
20260906200020 47 1.0 3.0 0.00 0.03 0.03 96 1023.3
20260906194520 47 1.0 4.0 0.00 0.03 0.03 96 1023.0
20260906193022 48 0.0 4.0 0.00 0.03 0.03 96 1023.0
20260906191512 48 0.0 2.0 0.01 0.03 0.03 96 1023.0
20260906190009 48 0.0 4.0 0.02 0.03 0.03 96 1023.0
20260906184507 49 0.0 3.0 0.02 0.03 0.03 95 1022.9
20260906183005 50 0.0 3.0 0.02 0.03 0.03 95 1022.8
20260906181503 50 0.0 3.0 0.01 0.02 0.02 95 1022.6
20260906180004 50 0.0 1.0 0.00 0.02 0.02 95 1022.6
20260906174501 50 0.0 3.0 0.02 0.02 0.02 95 1022.3
20260906173004 50 0.0 1.0 0.02 0.02 0.02 95 1022.5
20260906171559 50 0.0 3.0 0.02 0.02 0.02 94 1022.2
20260906170058 51 0.0 2.0 0.02 0.02 0.02 93 1022.4
20260906164554 51 0.0 2.0 0.00 0.00 0.00 92 1022.5
20260906163057 51 0.0 0.0 0.00 0.00 0.00 92 1022.5
20260906161554 51 0.0 0.0 0.00 0.00 0.00 92 1022.6
20260906160052 51 0.0 0.0 0.00 0.00 0.00 91 1022.7
20260906154552 51 0.0 0.0 0.00 0.00 0.00 91 1022.8
20260906153112 51 0.0 0.0 0.00 0.00 0.00 91 1022.7
20260906151558 51 0.0 0.0 0.00 0.00 0.00 90 1022.7
20260906150048 51 0.0 1.0 0.00 0.00 0.00 90 1022.7
20260906144552 51 0.0 1.0 0.00 0.00 0.00 90 1022.7
20260906143051 51 0.0 0.0 0.00 0.00 0.00 91 1022.7
20260906141546 51 0.0 0.0 0.00 0.00 0.00 90 1022.5
20260906140039 52 0.0 1.0 0.00 0.00 0.00 90 1022.5
20260906134556 52 0.0 0.0 0.00 0.00 0.00 90 1022.6
20260906133048 52 0.0 0.0 0.00 0.00 0.00 90 1022.6
20260906131538 52 0.0 0.0 0.00 0.00 0.00 90 1022.7
20260906130040 52 0.0 0.0 0.00 0.00 0.00 89 1022.8
20260906124536 52 0.0 0.0 0.00 0.00 0.00 89 1023.0
20260906123051 53 0.0 0.0 0.00 0.00 0.00 89 1022.9
20260906121542 53 0.0 0.0 0.00 0.00 0.00 88 1022.9
20260906120035 53 0.0 0.0 0.00 0.00 0.00 88 1022.9
20260906114533 53 0.0 0.0 0.00 0.00 0.00 88 1022.8
20260906113034 53 0.0 0.0 0.00 0.00 0.00 87 1022.8
20260906111534 53 0.0 2.0 0.00 0.00 0.00 87 1022.7
20260906110030 53 0.0 0.0 0.00 0.00 0.00 87 1022.7
20260906104529 54 0.0 0.0 0.00 0.00 0.00 87 1022.5
20260906103028 54 0.0 0.0 0.00 0.00 0.00 86 1022.5
20260906101531 54 1.0 3.0 0.00 0.00 0.00 87 1022.4
20260906100030 54 0.0 2.0 0.00 0.00 0.00 87 1022.4
20260906094525 54 0.0 3.0 0.00 0.00 0.00 87 1022.5
20260906093035 54 0.0 3.0 0.00 0.00 0.00 87 1022.3
20260906091523 54 0.0 3.0 0.00 0.00 0.00 86 1022.2
20260906090036 55 0.0 1.0 0.00 0.00 0.00 86 1021.9
20260906084520 55 0.0 1.0 0.00 0.00 0.00 86 1021.7
20260906083021 55 0.0 1.0 0.00 0.00 0.00 85 1021.6
20260906081518 55 0.0 2.0 0.00 0.00 0.00 84 1021.6
20260906080019 56 0.0 2.0 0.00 0.00 0.00 84 1021.4
20260906074514 56 0.0 1.0 0.00 0.00 0.00 86 1021.2
20260906073012 57 0.0 1.0 0.00 0.00 0.00 84 1021.1
20260906071511 57 0.0 1.0 0.00 0.00 0.00 83 1020.9
20260906070012 58 0.0 3.0 0.00 0.00 0.00 82 1020.8
20260906064510 58 0.0 3.0 0.00 0.02 0.00 82 1020.8
20260906063010 58 0.0 3.0 0.00 0.02 0.00 82 1020.6
20260906061509 58 1.0 6.0 0.00 0.02 0.00 83 1020.5
20260906060008 59 0.0 3.0 0.00 0.02 0.00 81 1020.4
20260906054506 59 2.0 6.0 0.00 0.06 0.00 78 1020.6
20260906053007 59 0.0 3.0 0.00 0.06 0.00 81 1020.5
20260906051507 59 1.0 7.0 0.00 0.06 0.00 81 1020.3
20260906050004 59 3.0 6.0 0.00 0.06 0.00 79 1020.2
20260906044503 59 2.0 6.0 0.00 0.09 0.00 82 1020.2
20260906043002 58 2.0 8.0 0.00 0.09 0.00 81 1020.2
20260906041502 59 3.0 7.0 0.00 0.09 0.00 80 1020.2
20260906034627 59 1.0 3.0 0.00 0.09 0.00 81 1020.0
20260906033058 59 1.0 3.0 0.00 0.09 0.00 80 1020.1
20260906031600 60 2.0 5.0 0.00 0.09 0.00 77 1020.1
20260906030055 59 0.0 2.0 0.00 0.09 0.00 77 1020.2
20260906024554 58 0.0 7.0 0.00 0.09 0.00 81 1020.3
20260906023056 59 1.0 4.0 0.00 0.09 0.00 80 1020.3
20260906021552 59 0.0 1.0 0.00 0.09 0.00 81 1020.6
20260906020059 59 0.0 3.0 0.00 0.09 0.00 80 1020.7
20260906014547 58 0.0 2.0 0.00 0.10 0.00 83 1020.9
20260906013101 57 3.0 6.0 0.00 0.10 0.00 83 1020.9
20260906011548 58 2.0 4.0 0.00 0.10 0.00 82 1020.8
20260906010044 56 1.0 4.0 0.00 0.10 0.00 86 1020.8
20260906004542 57 0.0 2.0 0.00 0.10 0.00 85 1020.8
20260906003040 57 1.0 3.0 0.00 0.10 0.00 84 1020.7
20260906001537 56 0.0 2.0 0.00 0.10 0.00 87 1020.5
20260906000035 55 0.0 2.0 0.00 0.10 0.00 87 1020.4
20260905234535 55 0.0 3.0 0.00 0.10 0.00 87 1020.3
20260905233039 55 0.0 2.0 0.00 0.10 0.00 88 1020.1
20260905231530 55 0.0 2.0 0.00 0.10 0.00 88 1019.9